www.pogodaiklimat.ru

Погода и климат >> Архив погоды >> Бангладеш >> Jessore


ПОГОДА в Jessore

  • Прогноз погоды в Jessore
  • Монитор погоды в Jessore
  • Климат города

АРХИВ ПОГОДЫ в Jessore

Время (UTC), дата Ветер
(напр.,м/с)
 
Видим.   Явления Облачность Т
(С)
Тd
(С)
f
(%)
Тe
(С)
Тes
(С)
Комфортность P
(гПа)
Po
(гПа)
Тmin
(С)
Tmax
(С)
R
(мм)
R24
(мм)
S
(см)
00 11.11 штиль 0 500 м туман ясно +16.2 +15.0 93 +16 +16 1013.3 1012.5
03 11.11 штиль 0 1000 м в посл. час туман ясно +20.2 +19.0 93 +24 +30 комфорт 1014.5 1013.8 +16.0
06 11.11 СВ 3 4000 м мгла ясно +29.6 +19.0 53 +35 +46 очень
душно
1013.4 1012.7
09 11.11 С 2 4000 м мгла ясно +29.6 +17.0 47 +33 +39 душно 1011.4 1010.7
12 11.11 штиль 0 3000 м мгла ясно +24.0 +21.0 83 +30 +30 очень
душно
1011.8 1011.1 +30.8
15 11.11 штиль 0 2000 м мгла ясно +22.4 +20.0 86 +29 +29 очень
душно
1013.6 1012.9
18 11.11 штиль 0 1600 м мгла ясно +20.6 +20.0 96 +25 +25 комфорт 1013.8 1013.8
21 11.11 штиль 0 1000 м мгла ясно +19.0 +18.0 94 +21 +21 комфорт 1012.7 1011.9
00 12.11 штиль 0 700 м туман ясно +17.8 +17.0 95 +18 +18 1013.7 1012.9
03 12.11 штиль 0 1400 м мгла {туман} 3/0
[Ac trans]
+21.6 +20.0 91 +27 +33 душно 1014.4 1013.7 +16.8
09 12.11 штиль 0 5000 м мгла 4/0
[Ci fib]
+30.4 +17.0 45 +34 +41 очень
душно
1009.8 1009.1
12 12.11 штиль 0 5000 м мгла 4/0
[Ci fib]
+24.0 +21.0 83 +30 +30 очень
душно
1010.0 1009.3 +31.2
15 12.11 штиль 0 3000 м мгла ясно +21.0 +19.0 88 +25 +25 комфорт 1011.6 1010.9
21 12.11 штиль 0 1200 м мгла ясно +18.0 +17.0 94 +18 +18 1010.2 1009.5
03 13.11 штиль 0 1000 м мгла ясно +21.0 +19.0 88 +25 +32 комфорт 1012.5 1011.8 +16.0
06 13.11 штиль 0 4000 м мгла ясно +30.0 +18.0 49 +35 +51 опасность
солнечного
удара
1011.3 1010.6
09 13.11 штиль 0 4000 м мгла ясно +30.4 +18.0 47 +35 +42 очень
душно
1008.2 1007.5
12 13.11 штиль 0 2500 м мгла ясно +24.8 +21.0 79 +31 +31 очень
душно
1008.3 1007.6 +31.0
15 13.11 штиль 0 2000 м мгла ясно +22.0 +20.0 88 +28 +28 душно 1010.7 1010.0
18 13.11 штиль 0 2000 м мгла ясно +20.2 +19.0 93 +24 +24 комфорт 1010.9 1010.2
21 13.11 штиль 0 1000 м мгла ясно +18.0 +17.0 94 +18 +18 1009.5 1008.8
00 14.11 штиль 0 600 м туман ясно +16.4 +15.0 91 +16 +16 1011.0 1010.2
03 14.11 штиль 0 700 м ясно +21.8 +16.2 70 +26 +32 душно 1012.9 1012.2
06 14.11 СВ 2 1200 м мгла 3/0
[Ac trans]
+29.0 +19.0 55 +34 +45 очень
душно
1011.6 1010.9
09 14.11 Ю 2 1200 м мгла 1/0
[Ac trans]
+30.4 +19.0 51 +36 +41 очень
душно
1009.5 1008.8
12 14.11 штиль 0 1000 м мгла 3/0
[Ac trans]
+24.6 +21.0 80 +31 +31 очень
душно
1010.2 1009.5 +30.6
15 14.11 штиль 0 1600 м мгла 3/0
[Ac trans]
+21.2 +20.0 93 +26 +26 душно 1012.1 1011.4
18 14.11 штиль 0 1200 м мгла ясно +20.2 +19.0 93 +24 +24 комфорт 1012.1 1011.4
21 14.11 штиль 0 1000 м дымка ясно +18.4 +17.0 92 +19 +19 1011.0 1010.3
00 15.11 штиль 0 500 м туман ясно +16.2 +15.0 93 +16 +16 1011.0 1010.2
03 15.11 штиль 0 500 м туман 1/0
[Ac trans]
+21.2 +20.0 93 +26 +32 душно 1014.7 1014.0 +16.0
06 15.11 ЮЗ 2 1000 м мгла 1/0
[Ac trans]
+29.6 +21.0 60 +37 +49 очень
душно
1013.5 1012.8
09 15.11 штиль 0 1600 м мгла ясно +31.6 +19.0 47 +37 +44 очень
душно
1011.0 1010.3
15 15.11 штиль 0 1600 м мгла ясно +19.6 +19.0 96 +22 +22 комфорт 1013.1 1012.4
18 15.11 штиль 0 1200 м мгла ясно +19.0 +18.0 94 +21 +21 комфорт 1013.1 1012.4
21 15.11 штиль 0 1000 м мгла ясно +18.0 +17.0 94 +18 +18 1012.3 1011.6
00 16.11 штиль 0 300 м туман ясно +17.4 +16.0 91 +17 +17 1013.0 1012.2
03 16.11 штиль 0 800 м туман ясно +23.0 +21.0 89 +31 +37 очень
душно
1014.5 1013.8 +16.6
06 16.11 штиль 0 2500 м мгла ясно +30.0 +20.0 55 +36 +52 опасность
солнечного
удара
1013.0 1012.3
09 16.11 штиль 0 4000 м мгла ясно +32.6 +14.0 32 +34 +41 очень
жарко
1009.8 1009.1
15 16.11 штиль 0 2000 м мгла ясно +19.6 +17.0 85 +22 +22 комфорт 1011.9 1011.1
21 16.11 штиль 0 700 м туман ясно +17.8 +17.0 95 +18 +18 1011.0 1010.3
00 17.11 штиль 0 700 м туман ясно +17.8 +17.0 95 +18 +18 1011.0 1010.3
06 17.11 штиль 0 2000 м мгла ясно +29.2 +15.0 42 +32 +47 душно 1012.2 1011.5
09 17.11 штиль 0 2000 м мгла ясно +30.2 +15.0 40 +33 +40 душно 1009.8 1009.1
12 17.11 штиль 0 2500 м мгла ясно +23.0 +20.0 83 +30 +30 очень
душно
1010.3 1009.6 +30.4
15 17.11 штиль 0 2000 м мгла ясно +19.4 +18.0 92 +21 +21 комфорт 1012.5 1011.7
18 17.11 штиль 0 1600 м мгла ясно +19.0 +18.0 94 +21 +21 комфорт 1012.5 1011.8

 

Местоположение метеостанции Jessore (Бангладеш): широта 23.18 долгота 89.17 высота над уровнем моря 7 м.

В архиве по умолчанию представлена погода в Jessore за последнюю неделю. Архивные данные за месяц целиком и за предыдущие месяцы, начиная с января 2011 года, Вы можете получить, выбрав интересующий диапазон дат из раскрывающегося списка и нажав кнопку "Ввод!".


*Определитесь, кто Вы:
робот инопланетянин человек

Внимание! Время в таблицах - всемирное. Для получения местного времени необходимо прибавить поправку, которая в Jessore равна 6.5 ч.

Смотрите также архив погоды в соседних городах и на ближайших метеорологических станциях:

Погода в Kumarkhali (Бангладеш) (38 км)
Погода в Satkhira (Бангладеш) (52 км)
Погода в Khulna (Бангладеш) (58 км)
Погода в Chuadanga (Бангладеш) (63 км)
Погода в Basirhat (West Bengal, Индия) (66 км)
Погода в Gopalganj Sadar (Бангладеш) (69 км)
Погода в Krishnanagar (West Bengal, Индия) (71 км)
Погода в Mongla (Бангладеш) (73 км)
Погода в Faridpur (Бангладеш) (84 км)
Погода в Bagati (West Bengal, Индия) (85 км)

Пояснения к столбцам:

Ветер - указаны скорость ветра в м/с - средняя за 10 мин, порывы в срок и между сроками (в фигурных скобках) и направление, откуда дует ветер: С - северный, СВ - северо-восточный, В - восточный, ЮВ - юго-восточный, Ю - южный, ЮЗ - юго-западный, З - западный, СЗ - северо-западный.
Видимость - горизонтальная дальность видимости в метрах или километрах. При видимости от 1 до 10 км при отсутствии осадков обычно наблюдается дымка, при ухудшении видимости до 1 км и менее - туман. В сухую погоду видимость может ухудшаться дымом, пылью или мглою.
Явления - указаны атмосферные явления, наблюдавшиеся в срок или в последний час перед сроком; фигурными скобками обозначены явления, наблюдавшиеся между сроками (за 1-3 часа до срока); квадратными скобками обозначены град или гололедные отложения с указанием их диаметра в мм.
Облачность - указаны через наклонную черту общая и нижняя облачность в баллах и высота нижней границы облаков в метрах; квадратными скобками обозначены формы облаков: Ci - перистые, Cs - перисто-слоистые, Cc - перисто-кучевые, Ac - высококучевые, As - высокослоистые, Sc - слоисто-кучевые, Ns - слоисто-дождевые, Cu - кучевые, Cb - кучево-дождевые. Подробнее классификацию облаков см. в Атласе облаков (PDF).
T - Температура воздуха - температура, измеренная на высоте 2 м над землей.
Td - Температура точки росы - температура, при понижении до которой содержащийся в воздухе водяной пар достигнет насыщения.
f - Относительная влажность воздуха - влажноcть воздуха, измеренная на высоте 2 м над землей.
Te - Эффективная температура - температура, которую ощущает одетый по сезону человек в тени. Характеристика душности погоды. При расчете учитывается влияние влажности воздуха и скорости ветра на теплоощущения человека.
Tes - Эффективная температура на солнце - температура, которую ощущает человек, с поправкой на солнечный нагрев. Характеристика знойности погоды. Зависит от высоты солнца над горизонтом, облачности и скорости ветра. Ночью, в пасмурную погоду, а также при ветре 12 м/с и более поправка равна нулю.
P - Атмосферное давление - приведенное к уровню моря атмосферное давление.
Po - Атмосферное давление - измеренное на уровне метеостанции атмосферное давление.
Tmin - Минимальная температура - минимум температуры воздуха на высоте 2 м над землей.
Tmax - Максимальная температура - максимум температуры воздуха на высоте 2 м над землей.
R - Количество осадков - Количество выпавших осадков за период времени, мм. При наведении курсора мыши на число - период времени, за который выпало указанное количество осадков.
R24 - Количество осадков - Количество выпавших осадков за 24 часа, мм.
S - Снежный покров - Высота снежного покрова, см. При наведении курсора мыши на число - состояние снежного покрова и степень покрытия местности в баллах.